Chanute, KS

12:13 PM CST on December 16, 2017 (GMT -0600)
Chanute Martin Johnson

Weather History for KCNU - January, 2013

Change the Weather History Date:

Tuesday, January 29, 2013

  Actual Average Record
Temperature  
Mean Temperature 53 °F 33 °F  
Max Temperature 68 °F 44 °F 75 °F (1917)
Min Temperature 37 °F 23 °F -16 °F (1949)
Degree Days  
Heating Degree Days 12 32  
Month to date heating degree days 809 948  
Since 1 July heating degree days 2212 2741  
Cooling Degree Days 0 0  
Month to date cooling degree days 1 0  
Year to date cooling degree days 1 0  
Growing Degree Days 2 (Base 50)    
Moisture  
Dew Point 48 °F    
Average Humidity 88    
Maximum Humidity 100    
Minimum Humidity 76    
Precipitation  
Precipitation 1.97 in 0.04 in 1.97 in (2013)
Month to date precipitation 2.37 1.16  
Year to date precipitation 2.37 1.16  
Sea Level Pressure  
Sea Level Pressure 29.58 in    
Wind  
Wind Speed 12 mph (NW)    
Max Wind Speed 29 mph    
Max Gust Speed 37 mph    
Visibility 5 miles    
Events Rain , Thunderstorm    
T = Trace of Precipitation, MM = Missing Value Source: NWS Daily Summary

Daily Weather History Graph

Daily Weather History Graph

Search for Another Location

Airport or City:

Trip Planner

Search our weather history database for the weather conditions in past years. The results will help you decide how hot, cold, wet, or windy it might be!

Date:

Astronomy

Jan. 29, 2013 Rise Set
Actual Time 7:27 AM CST 5:42 PM CST
Civil Twilight 7:00 AM CST 6:10 PM CST
Nautical Twilight 6:28 AM CST 6:42 PM CST
Astronomical Twilight 5:57 AM CST 7:12 PM CST
Moon 8:35 PM CST (1/29) 8:29 AM CST (1/29)
Length of Visible Light 11h 10m
Length of Day
10h 14m
Waning Gibbous, 93% of the Moon is Illuminated
Jan 29
Waning Gibbous
Feb 3
Last Quarter
Feb 10
New
Feb 17
First Quarter
Feb 25
Full

Hourly Weather History & Observations

Time (CST) Temp. Windchill Dew Point Humidity Pressure Visibility Wind Dir Wind Speed Gust Speed Precip Events Conditions
12:11 AM 68.0 °F - 60.8 °F 78% 29.70 in 10.0 mi South 23.0 mph 32.2 mph N/A   Mostly Cloudy
12:33 AM 68.0 °F - 60.8 °F 78% 29.69 in 10.0 mi South 25.3 mph 33.4 mph N/A   Scattered Clouds
12:52 AM 66.9 °F - 61.0 °F 81% 29.67 in 10.0 mi South 21.9 mph 29.9 mph N/A   Scattered Clouds
1:10 AM 66.2 °F - 60.8 °F 83% 29.69 in 10.0 mi South 24.2 mph 28.8 mph N/A   Overcast
1:52 AM 66.9 °F - 60.1 °F 79% 29.66 in 10.0 mi South 18.4 mph 27.6 mph N/A   Overcast
2:52 AM 66.0 °F - 60.1 °F 81% 29.66 in 10.0 mi South 21.9 mph 28.8 mph N/A   Mostly Cloudy
3:20 AM 66.2 °F - 60.8 °F 83% 29.68 in 10.0 mi SW 11.5 mph 23.0 mph N/A   Mostly Cloudy
3:52 AM 66.9 °F - 59.0 °F 76% 29.64 in 10.0 mi SSW 18.4 mph 26.5 mph N/A   Mostly Cloudy
4:16 AM 64.4 °F - 57.2 °F 77% 29.65 in 10.0 mi South 13.8 mph - N/A   Scattered Clouds
4:52 AM 64.9 °F - 57.9 °F 78% 29.62 in 10.0 mi South 20.7 mph 25.3 mph N/A   Partly Cloudy
5:52 AM 62.1 °F - 55.0 °F 78% 29.59 in 10.0 mi South 13.8 mph - N/A   Partly Cloudy
6:14 AM 62.6 °F - 57.2 °F 82% 29.61 in 10.0 mi South 13.8 mph - N/A Thunderstorm Mostly Cloudy
6:52 AM 57.9 °F - 55.0 °F 90% 29.59 in 6.0 mi South 21.9 mph 31.1 mph 0.07 in Rain , Thunderstorm Thunderstorms and Rain
7:52 AM 57.0 °F - 55.0 °F 93% 29.61 in 2.5 mi SSW 15.0 mph - 0.27 in Rain , Thunderstorm Thunderstorms and Rain
8:06 AM 57.2 °F - 55.4 °F 94% 29.64 in 1.8 mi SW 12.7 mph - 0.24 in Rain Heavy Rain
8:11 AM 57.2 °F - 55.4 °F 94% 29.60 in 2.0 mi WSW 8.1 mph 17.3 mph 0.29 in Rain , Thunderstorm Heavy Thunderstorms and Rain
8:21 AM 57.2 °F - 55.4 °F 94% 29.62 in 8.0 mi WSW 8.1 mph - 0.29 in Rain , Thunderstorm Light Thunderstorms and Rain
8:32 AM 57.2 °F - 55.4 °F 94% 29.61 in 4.0 mi West 12.7 mph - 0.35 in Rain , Thunderstorm Heavy Thunderstorms and Rain
8:34 AM 57.2 °F - 55.4 °F 94% 29.63 in 2.5 mi WSW 13.8 mph - 0.39 in Rain , Thunderstorm Heavy Thunderstorms and Rain
8:40 AM 57.2 °F - 55.4 °F 94% 29.64 in 1.2 mi West 24.2 mph 33.4 mph 0.55 in Rain , Thunderstorm Heavy Thunderstorms and Rain
8:45 AM 57.2 °F - 55.4 °F 94% 29.66 in 0.8 mi WNW 23.0 mph 36.8 mph 0.70 in Rain , Thunderstorm Heavy Thunderstorms and Rain
8:52 AM 53.1 °F - 52.0 °F 96% 29.64 in 1.0 mi NW 15.0 mph 29.9 mph 0.86 in Rain , Thunderstorm Heavy Thunderstorms and Rain
8:55 AM 53.6 °F - 51.8 °F 94% 29.65 in 1.5 mi NW 12.7 mph 28.8 mph 0.02 in Rain , Thunderstorm Heavy Thunderstorms and Rain
8:59 AM 53.6 °F - 51.8 °F 94% 29.64 in 2.0 mi NNW 12.7 mph - 0.03 in Rain , Thunderstorm Heavy Thunderstorms and Rain
9:08 AM 51.8 °F - 50.0 °F 94% 29.64 in 4.0 mi NNW 9.2 mph - 0.06 in Rain , Thunderstorm Thunderstorms and Rain
9:15 AM 51.8 °F - 50.0 °F 94% 29.64 in 3.0 mi North 9.2 mph - 0.07 in Rain , Thunderstorm Rain
9:52 AM 48.9 °F - 48.0 °F 97% 29.60 in 3.0 mi NNW 9.2 mph - 0.19 in Rain , Thunderstorm Rain
10:00 AM 48.2 °F - 46.4 °F 93% 29.61 in 3.0 mi North 8.1 mph - 0.02 in Rain Rain
10:18 AM 48.2 °F - 46.4 °F 93% 29.61 in 4.0 mi NNW 10.4 mph - 0.05 in Rain Light Rain
10:27 AM 48.2 °F - 46.4 °F 93% 29.62 in 5.0 mi North 6.9 mph - 0.05 in Rain Light Rain
10:50 AM 46.4 °F 42.4 °F 46.4 °F 100% 29.63 in 2.5 mi NNW 8.1 mph - 0.09 in Rain Rain
10:52 AM 46.9 °F - 46.0 °F 97% 29.61 in 2.5 mi NNW 6.9 mph - 0.09 in Rain Rain
11:01 AM 46.4 °F 42.9 °F 46.4 °F 100% 29.60 in 3.0 mi NNE 6.9 mph - 0.02 in Rain Rain
11:20 AM 46.4 °F 42.9 °F 46.4 °F 100% 29.56 in 3.0 mi North 6.9 mph - 0.07 in Rain , Thunderstorm Rain
11:29 AM 46.4 °F 42.9 °F 46.4 °F 100% 29.57 in 2.5 mi North 6.9 mph - 0.11 in Rain Heavy Rain
11:36 AM 46.4 °F 44.3 °F 46.4 °F 100% 29.59 in 3.0 mi NNE 4.6 mph - 0.13 in Rain , Thunderstorm Rain
11:43 AM 46.4 °F - 46.4 °F 100% 29.60 in 2.5 mi Calm Calm - 0.14 in Rain , Thunderstorm Rain
11:52 AM 48.0 °F - 46.0 °F 93% 29.60 in 2.0 mi Calm Calm - 0.17 in Rain Rain
12:02 PM 48.2 °F - 46.4 °F 93% 29.60 in 1.8 mi WNW 4.6 mph - 0.03 in Rain Rain
12:20 PM 46.4 °F 45.2 °F 46.4 °F 100% 29.55 in 2.0 mi NE 3.5 mph - 0.10 in Rain Rain
12:30 PM 48.2 °F - 46.4 °F 93% 29.54 in 4.0 mi Calm Calm - 0.11 in Rain Rain
12:43 PM 48.2 °F - 46.4 °F 93% 29.52 in 2.5 mi East 5.8 mph - 0.16 in Rain Heavy Rain
12:52 PM 48.0 °F - 46.9 °F 96% 29.49 in 2.5 mi East 6.9 mph - 0.19 in Rain Rain
1:00 PM 48.2 °F - 46.4 °F 93% 29.49 in 3.0 mi East 6.9 mph - 0.02 in Rain Rain
1:07 PM 48.2 °F - 48.2 °F 100% 29.47 in 3.0 mi East 5.8 mph - 0.05 in Rain Rain
1:52 PM 51.1 °F - 50.0 °F 96% 29.45 in 5.0 mi ESE 11.5 mph - 0.08 in Rain Light Rain
2:52 PM 48.0 °F - 46.0 °F 93% 29.45 in 6.0 mi North 9.2 mph - 0.03 in Rain Light Rain
3:19 PM 44.6 °F 37.8 °F 42.8 °F 93% 29.52 in 6.0 mi NW 15.0 mph 26.5 mph 0.01 in   Overcast
3:30 PM 42.8 °F 36.6 °F 42.8 °F 100% 29.52 in 1.8 mi NNW 11.5 mph - 0.01 in   Overcast
3:37 PM 42.8 °F 35.8 °F 41.0 °F 93% 29.51 in 1.5 mi NW 13.8 mph - 0.01 in Rain Light Rain
3:52 PM 42.1 °F 34.9 °F 41.0 °F 96% 29.49 in 1.5 mi North 13.8 mph - 0.01 in   Overcast
4:21 PM 42.8 °F 36.2 °F 41.0 °F 93% 29.49 in 2.0 mi North 12.7 mph 19.6 mph 0.00 in Rain Light Rain
4:33 PM 42.8 °F 37.0 °F 41.0 °F 93% 29.51 in 4.0 mi North 10.4 mph - 0.00 in Rain Light Rain
4:52 PM 42.1 °F 35.7 °F 39.9 °F 92% 29.55 in 4.0 mi NW 11.5 mph 18.4 mph 0.00 in Rain Light Rain
5:52 PM 39.9 °F 32.1 °F 37.9 °F 93% 29.54 in 4.0 mi NNW 13.8 mph - 0.00 in   Overcast
6:52 PM 39.0 °F 31.0 °F 37.0 °F 93% 29.55 in 4.0 mi North 13.8 mph - 0.00 in   Overcast
7:33 PM 37.4 °F 29.8 °F 37.4 °F 100% 29.54 in 5.0 mi North 11.5 mph - N/A   Overcast
7:52 PM 39.0 °F 32.8 °F 37.0 °F 93% 29.57 in 6.0 mi North 9.2 mph - N/A   Overcast
8:52 PM 37.9 °F 33.5 °F 36.0 °F 93% 29.58 in 7.0 mi North 5.8 mph - N/A   Overcast
9:17 PM 37.4 °F 30.8 °F 35.6 °F 93% 29.52 in 5.0 mi ENE 9.2 mph - 0.01 in Rain Light Rain
9:52 PM 37.0 °F 30.4 °F 36.0 °F 96% 29.47 in 7.0 mi East 9.2 mph - 0.01 in   Scattered Clouds
10:01 PM 37.4 °F 28.2 °F 35.6 °F 93% 29.52 in 6.0 mi West 16.1 mph 25.3 mph N/A   Mostly Cloudy
10:18 PM 37.4 °F 29.3 °F 35.6 °F 93% 29.54 in 6.0 mi WNW 12.7 mph - N/A   Overcast
10:52 PM 37.9 °F 31.5 °F 35.1 °F 89% 29.57 in 6.0 mi WNW 9.2 mph - N/A   Overcast
11:52 PM 37.0 °F 29.8 °F 35.1 °F 93% 29.57 in 5.0 mi NW 10.4 mph - N/A   Overcast